VK3VJP-13 Weather Reports


Display with metric or nautical units.
time (UTC)temp
F
wind
direction
speed
MPH
gust
MPH
rain 1hr
in
rain 24hr
in
rain mn
in
humidity
%
barometer
mb
20260510082751 50 85 1.0 4.0 0.00 0.00 0.00 84 1029.7
20260510082251 50 140 1.0 5.0 0.00 0.00 0.00 83 1029.6
20260510081751 50 147 1.0 5.0 0.00 0.00 0.00 83 1029.6
20260510081251 50 194 1.0 3.0 0.00 0.00 0.00 83 1029.6
20260510080751 51 223 1.0 2.0 0.00 0.00 0.00 82 1029.6
20260510080251 51 221 1.0 4.0 0.00 0.00 0.00 82 1029.4
20260510075751 51 103 1.0 2.0 0.00 0.00 0.00 81 1029.4
20260510075251 51 206 1.0 4.0 0.00 0.00 0.00 81 1029.5
20260510074751 52 157 1.0 2.0 0.00 0.00 0.00 80 1029.4
20260510074251 52 234 1.0 2.0 0.00 0.00 0.00 79 1029.4
20260510073751 53 107 1.0 3.0 0.00 0.00 0.00 79 1029.3
20260510073251 53 183 1.0 3.0 0.00 0.00 0.00 78 1029.3
20260510072751 53 143 1.0 4.0 0.00 0.00 0.00 77 1029.3
20260510072251 54 172 1.0 3.0 0.00 0.00 0.00 77 1029.3
20260510071751 54 126 0.0 2.0 0.00 0.00 0.00 76 1029.3
20260510071251 54 104 1.0 2.0 0.00 0.00 0.00 75 1029.3
20260510070751 55 178 1.0 4.0 0.00 0.00 0.00 75 1029.3
20260510070251 55 92 1.0 4.0 0.00 0.00 0.00 75 1029.3
20260510065751 55 150 1.0 4.0 0.00 0.00 0.00 75 1029.2
20260510065251 56 190 1.0 5.0 0.00 0.00 0.00 74 1029.1
20260510064751 56 265 1.0 3.0 0.00 0.00 0.00 73 1029.2
20260510064251 56 148 1.0 5.0 0.00 0.00 0.00 73 1029.1
20260510063751 56 146 1.0 5.0 0.00 0.00 0.00 74 1029.1
20260510063251 56 232 2.0 5.0 0.00 0.00 0.00 73 1029.0
20260510062751 57 207 2.0 6.0 0.00 0.00 0.00 73 1029.0
20260510062251 57 205 2.0 7.0 0.00 0.00 0.00 73 1029.0
20260510061751 57 229 1.0 2.0 0.00 0.00 0.00 73 1028.9
20260510061251 57 117 1.0 4.0 0.00 0.00 0.00 73 1028.9
20260510060751 57 206 2.0 4.0 0.00 0.00 0.00 73 1028.9
20260510060251 57 183 2.0 6.0 0.00 0.00 0.00 72 1028.8
20260510055751 57 238 1.0 7.0 0.00 0.00 0.00 72 1028.8
20260510055251 57 254 2.0 4.0 0.00 0.00 0.00 72 1028.8
20260510054751 57 66 3.0 4.0 0.00 0.00 0.00 71 1028.8
20260510054251 58 74 3.0 9.0 0.00 0.00 0.00 70 1028.7
20260510053751 58 40 2.0 6.0 0.00 0.00 0.00 70 1028.8
20260510053251 58 198 2.0 7.0 0.00 0.00 0.00 72 1028.8
20260510052751 57 117 2.0 8.0 0.00 0.00 0.00 71 1028.7
20260510052251 57 86 2.0 6.0 0.00 0.00 0.00 72 1028.7
20260510051751 57 182 3.0 8.0 0.00 0.00 0.00 73 1028.7
20260510051251 57 69 3.0 8.0 0.00 0.00 0.00 72 1028.6
20260510050751 57 128 2.0 5.0 0.00 0.00 0.00 72 1028.7
20260510050251 57 251 3.0 7.0 0.00 0.00 0.00 70 1028.6
20260510045751 57 61 3.0 9.0 0.00 0.00 0.00 70 1028.7
20260510045251 57 197 3.0 7.0 0.00 0.00 0.00 71 1028.7
20260510044751 57 257 2.0 7.0 0.00 0.00 0.00 72 1028.6
20260510044251 57 225 2.0 7.0 0.00 0.00 0.00 71 1028.7
20260510043751 58 212 3.0 10.0 0.00 0.00 0.00 70 1028.6
20260510043251 58 0 2.0 7.0 0.00 0.00 0.00 70 1028.6
20260510042752 58 134 2.0 10.0 0.00 0.00 0.00 69 1028.6
20260510042251 58 197 3.0 9.0 0.00 0.00 0.00 70 1028.5
20260510041752 59 19 3.0 5.0 0.00 0.00 0.00 69 1028.5
20260510041252 59 155 3.0 7.0 0.00 0.00 0.00 71 1028.5
20260510040752 59 115 3.0 8.0 0.00 0.00 0.00 70 1028.6
20260510040252 59 230 3.0 7.0 0.00 0.00 0.00 70 1028.6
20260510035752 59 132 2.0 10.0 0.00 0.00 0.00 70 1028.6
20260510035252 59 57 2.0 9.0 0.00 0.00 0.00 70 1028.7
20260510034752 59 219 2.0 7.0 0.00 0.00 0.00 72 1028.6
20260510034252 59 261 3.0 9.0 0.00 0.00 0.00 71 1028.6
20260510033752 59 192 3.0 9.0 0.00 0.00 0.00 71 1028.6
20260510033252 59 9 2.0 7.0 0.00 0.00 0.00 70 1028.6
20260510032752 59 94 2.0 5.0 0.00 0.00 0.00 71 1028.7
20260510032252 59 105 3.0 10.0 0.00 0.00 0.00 71 1028.7
20260510031752 59 149 2.0 6.0 0.00 0.00 0.00 72 1028.7
20260510031252 59 69 2.0 5.0 0.00 0.00 0.00 71 1028.6
20260510030752 59 98 3.0 4.0 0.00 0.00 0.00 72 1028.8
20260510030252 59 171 3.0 8.0 0.00 0.00 0.00 73 1028.8
20260510025752 58 192 2.0 6.0 0.00 0.00 0.00 73 1028.8
20260510025252 58 242 3.0 6.0 0.00 0.00 0.00 73 1028.9
20260510024752 58 321 3.0 8.0 0.00 0.00 0.00 73 1029.0
20260510023752 58 28 3.0 13.0 0.00 0.00 0.00 73 1029.1
20260510023252 58 182 3.0 9.0 0.00 0.00 0.00 72 1029.2
20260510022752 58 217 2.0 9.0 0.00 0.00 0.00 75 1029.2
20260510022252 58 103 3.0 9.0 0.00 0.00 0.00 73 1029.3
20260510021752 58 263 3.0 5.0 0.00 0.00 0.00 73 1029.4
20260510021252 58 184 2.0 5.0 0.00 0.00 0.00 74 1029.5
20260510020752 57 115 2.0 4.0 0.00 0.00 0.00 75 1029.6
20260510020252 57 355 2.0 7.0 0.00 0.00 0.00 75 1029.6
20260510015752 57 76 3.0 7.0 0.00 0.00 0.00 76 1029.5
20260510015252 56 56 4.0 8.0 0.00 0.00 0.00 77 1029.7
20260510014752 56 144 4.0 8.0 0.00 0.00 0.00 77 1029.6
20260510014252 56 5 4.0 9.0 0.00 0.00 0.00 77 1029.6
20260510013752 56 234 4.0 11.0 0.00 0.00 0.00 77 1029.8
20260510013252 56 159 4.0 9.0 0.00 0.00 0.00 78 1029.8
20260510012752 55 157 4.0 11.0 0.00 0.00 0.00 78 1029.9
20260510012252 55 215 4.0 11.0 0.00 0.00 0.00 78 1030.0
20260510011252 55 54 3.0 8.0 0.00 0.00 0.00 78 1030.0
20260510010752 54 128 3.0 7.0 0.00 0.00 0.00 79 1030.0
20260510010252 54 225 3.0 8.0 0.00 0.00 0.00 79 1030.0
20260510005752 54 254 4.0 9.0 0.00 0.00 0.00 81 1029.9
20260510005252 54 74 5.0 11.0 0.00 0.00 0.00 81 1029.9
20260510004752 53 194 4.0 13.0 0.00 0.00 0.00 81 1029.9
20260510004252 53 149 4.0 9.0 0.00 0.00 0.00 80 1030.0
20260510003752 53 115 4.0 10.0 0.00 0.00 0.00 82 1029.9
20260510003252 53 122 4.0 10.0 0.00 0.00 0.00 83 1029.9
20260510002752 52 88 4.0 11.0 0.00 0.00 0.00 83 1030.0
20260510002252 52 213 5.0 14.0 0.00 0.00 0.00 83 1029.8
20260510001752 52 185 5.0 10.0 0.00 0.00 0.00 84 1029.8
20260510001252 51 71 4.0 13.0 0.00 0.00 0.00 85 1029.9
20260510000752 51 105 4.0 12.0 0.00 0.00 0.00 87 1029.8
20260510000252 50 271 4.0 10.0 0.00 0.00 0.00 88 1029.8
20260509235752 50 107 4.0 12.0 0.00 0.00 0.00 88 1029.9
20260509235252 50 217 4.0 11.0 0.00 0.00 0.00 88 1029.9
20260509234752 50 213 4.0 13.0 0.00 0.00 0.00 88 1029.9
20260509234252 50 61 4.0 14.0 0.00 0.00 0.00 88 1029.8
20260509233752 50 264 3.0 12.0 0.00 0.00 0.00 89 1029.9
20260509233252 50 168 4.0 10.0 0.00 0.00 0.00 89 1029.9
20260509232752 49 255 4.0 12.0 0.00 0.00 0.00 89 1029.8
20260509232252 49 34 3.0 10.0 0.00 0.00 0.00 90 1030.0
20260509231752 49 148 3.0 8.0 0.00 0.00 0.00 90 1030.1
20260509231252 49 239 4.0 10.0 0.00 0.00 0.00 90 1030.0
20260509230752 49 24 3.0 11.0 0.00 0.00 0.00 91 1030.1
20260509230252 49 170 3.0 7.0 0.00 0.00 0.00 91 1030.1
20260509225752 49 81 3.0 8.0 0.00 0.00 0.00 91 1029.9
20260509225252 49 156 2.0 9.0 0.00 0.00 0.00 92 1030.0
20260509224752 49 130 2.0 5.0 0.00 0.00 0.00 92 1030.0
20260509224252 49 194 2.0 6.0 0.00 0.00 0.00 92 1029.9
20260509223752 49 244 3.0 8.0 0.00 0.00 0.00 92 1029.7
20260509223252 49 217 2.0 6.0 0.00 0.00 0.00 92 1029.7
20260509222752 49 276 2.0 7.0 0.00 0.00 0.00 93 1029.6
20260509222252 49 281 2.0 5.0 0.00 0.00 0.00 93 1029.6
20260509221753 49 244 2.0 5.0 0.00 0.00 0.00 93 1029.5
20260509221252 49 349 2.0 4.0 0.00 0.00 0.00 93 1029.5
20260509220752 49 110 2.0 6.0 0.00 0.00 0.00 93 1029.4
20260509220252 49 84 2.0 8.0 0.00 0.00 0.00 93 1029.5
20260509215752 49 167 1.0 9.0 0.00 0.00 0.00 93 1029.3
20260509215252 49 167 1.0 4.0 0.00 0.00 0.00 93 1029.4
20260509214752 48 150 2.0 6.0 0.00 0.00 0.00 93 1029.3
20260509214252 48 145 2.0 5.0 0.00 0.00 0.00 93 1029.3
20260509213752 48 115 2.0 4.0 0.00 0.00 0.00 93 1029.2
20260509213252 48 163 1.0 5.0 0.00 0.00 0.00 93 1029.2
20260509212752 48 189 1.0 5.0 0.00 0.00 0.00 93 1029.1
20260509212252 48 0 2.0 4.0 0.00 0.00 0.00 92 1029.0
20260509211752 48 246 2.0 5.0 0.00 0.00 0.00 92 1029.0
20260509211252 49 148 2.0 7.0 0.00 0.00 0.00 92 1028.9
20260509210752 49 250 2.0 5.0 0.00 0.00 0.00 93 1028.9
20260509210252 49 94 2.0 5.0 0.00 0.00 0.00 93 1028.9
20260509205752 49 150 2.0 5.0 0.00 0.00 0.00 93 1028.8
20260509205252 49 178 2.0 6.0 0.00 0.00 0.00 92 1028.6
20260509204752 49 92 2.0 3.0 0.00 0.00 0.00 92 1028.7
20260509204252 49 180 2.0 7.0 0.00 0.00 0.00 92 1028.6
20260509203752 49 182 2.0 8.0 0.00 0.00 0.00 92 1028.5
20260509203252 49 122 2.0 9.0 0.00 0.00 0.00 92 1028.6
20260509202753 49 186 2.0 5.0 0.00 0.00 0.00 92 1028.6
20260509202252 49 123 2.0 4.0 0.00 0.00 0.00 92 1028.5
20260509201752 49 235 2.0 8.0 0.00 0.00 0.00 92 1028.4
20260509201252 49 142 2.0 4.0 0.00 0.00 0.00 92 1028.4
20260509200752 49 224 3.0 5.0 0.00 0.00 0.00 91 1028.4
20260509200252 49 161 2.0 8.0 0.00 0.00 0.00 91 1028.3
20260509195752 49 187 2.0 5.0 0.00 0.00 0.00 91 1028.4
20260509195252 49 137 2.0 5.0 0.00 0.00 0.00 91 1028.4
20260509194752 49 238 2.0 6.0 0.00 0.00 0.00 91 1028.4
20260509194252 49 171 2.0 6.0 0.00 0.00 0.00 90 1028.4
20260509193752 49 157 2.0 6.0 0.00 0.00 0.00 90 1028.3
20260509193252 49 152 1.0 4.0 0.00 0.00 0.00 90 1028.3
20260509192752 49 226 1.0 3.0 0.00 0.00 0.00 90 1028.3
20260509192252 49 187 1.0 5.0 0.00 0.00 0.00 90 1028.3
20260509191752 49 107 2.0 6.0 0.00 0.00 0.00 90 1028.1
20260509191252 49 117 3.0 9.0 0.00 0.00 0.00 90 1028.0
20260509190753 49 223 3.0 6.0 0.00 0.00 0.00 90 1028.0
20260509190252 49 144 3.0 7.0 0.00 0.00 0.00 90 1027.8
20260509185752 50 159 2.0 7.0 0.00 0.00 0.00 91 1027.8
20260509185252 50 194 1.0 4.0 0.00 0.00 0.00 91 1027.7
20260509184752 50 148 1.0 4.0 0.00 0.00 0.00 92 1027.7
20260509184252 50 148 1.0 5.0 0.00 0.00 0.00 92 1027.7
20260509183752 50 190 1.0 6.0 0.00 0.00 0.00 92 1027.7
20260509183252 50 168 2.0 7.0 0.00 0.00 0.00 92 1027.7
20260509182753 50 211 2.0 5.0 0.00 0.00 0.00 92 1027.6
20260509182253 50 173 1.0 7.0 0.00 0.01 0.00 92 1027.7
20260509181753 50 182 1.0 3.0 0.00 0.01 0.00 92 1027.6
20260509181253 50 188 2.0 4.0 0.00 0.01 0.00 92 1027.5
20260509180753 50 150 2.0 4.0 0.00 0.01 0.00 92 1027.5
20260509180253 50 58 2.0 7.0 0.00 0.01 0.00 92 1027.5
20260509175753 50 161 1.0 3.0 0.00 0.01 0.00 92 1027.5
20260509175253 50 205 1.0 3.0 0.00 0.01 0.00 93 1027.6
20260509174753 50 214 1.0 2.0 0.00 0.01 0.00 93 1027.5
20260509174253 50 136 1.0 4.0 0.00 0.01 0.00 93 1027.5
20260509173753 50 206 1.0 6.0 0.00 0.01 0.00 93 1027.5
20260509173253 50 195 2.0 5.0 0.00 0.01 0.00 93 1027.4
20260509172753 50 62 2.0 7.0 0.00 0.01 0.00 93 1027.4
20260509172253 50 213 1.0 4.0 0.00 0.01 0.00 93 1027.5
20260509171753 50 198 1.0 7.0 0.00 0.01 0.00 93 1027.4
20260509171253 50 148 1.0 5.0 0.00 0.01 0.00 93 1027.5
20260509170753 50 164 2.0 5.0 0.00 0.01 0.00 94 1027.5
20260509170253 50 210 1.0 4.0 0.00 0.01 0.00 94 1027.6
20260509165753 50 269 2.0 4.0 0.00 0.01 0.00 94 1027.6
20260509165253 50 223 2.0 7.0 0.00 0.01 0.00 94 1027.6
20260509164753 50 235 1.0 3.0 0.00 0.01 0.00 94 1027.7
20260509164253 50 177 1.0 3.0 0.00 0.01 0.00 94 1027.6
20260509163753 50 237 0.0 2.0 0.00 0.01 0.00 94 1027.7
20260509163253 50 134 0.0 2.0 0.00 0.01 0.00 94 1027.7
20260509162753 50 183 0.0 2.0 0.00 0.01 0.00 94 1027.7
20260509162253 50 257 1.0 3.0 0.00 0.01 0.00 94 1027.7
20260509161753 50 119 1.0 4.0 0.00 0.01 0.00 94 1027.7
20260509161253 50 237 0.0 0.0 0.00 0.01 0.00 94 1027.8
20260509160753 50 184 0.0 1.0 0.00 0.01 0.00 94 1027.7
20260509160253 50 191 1.0 2.0 0.00 0.01 0.00 94 1027.8
20260509155753 50 160 1.0 3.0 0.00 0.01 0.00 94 1027.8
20260509155253 50 15 1.0 5.0 0.00 0.01 0.00 94 1027.7
20260509154753 50 240 1.0 3.0 0.00 0.01 0.00 94 1027.8
20260509154253 50 105 1.0 4.0 0.00 0.01 0.00 94 1027.6
20260509153753 50 143 2.0 4.0 0.00 0.01 0.00 94 1027.8
20260509153253 50 117 2.0 5.0 0.00 0.01 0.00 94 1027.8
20260509152753 50 138 2.0 6.0 0.00 0.01 0.00 94 1027.8
20260509152253 50 199 2.0 7.0 0.00 0.01 0.00 93 1027.7
20260509151753 50 168 2.0 6.0 0.00 0.01 0.00 93 1027.8
20260509151253 50 200 2.0 5.0 0.00 0.01 0.00 93 1027.7
20260509150753 50 192 2.0 4.0 0.00 0.01 0.00 94 1027.7
20260509150253 50 92 3.0 4.0 0.00 0.01 0.00 93 1027.8
20260509145753 50 178 3.0 9.0 0.00 0.01 0.00 93 1027.7
20260509145253 50 194 3.0 9.0 0.00 0.01 0.00 93 1027.6
20260509144753 50 131 2.0 11.0 0.00 0.01 0.00 93 1027.7
20260509144253 50 161 1.0 7.0 0.00 0.01 0.00 93 1027.7
20260509143753 50 158 1.0 5.0 0.00 0.01 0.00 93 1027.8
20260509143253 50 174 2.0 5.0 0.00 0.01 0.00 93 1027.8
20260509142753 50 130 2.0 5.0 0.00 0.01 0.00 93 1027.8
20260509142253 50 215 2.0 8.0 0.00 0.02 0.00 93 1027.8
20260509141753 50 126 2.0 7.0 0.00 0.02 0.00 93 1027.8
20260509141253 50 150 2.0 8.0 0.00 0.02 0.00 93 1027.8
20260509140753 50 206 3.0 7.0 0.00 0.02 0.00 92 1027.9
20260509140253 50 189 2.0 5.0 0.00 0.02 0.00 93 1028.0
20260509135753 50 209 2.0 7.0 0.00 0.02 0.02 92 1027.9
20260509135253 50 135 2.0 5.0 0.00 0.02 0.02 92 1027.8
20260509134753 50 157 2.0 5.0 0.00 0.02 0.02 92 1028.0
20260509134253 50 153 2.0 5.0 0.00 0.02 0.02 92 1027.9
20260509133753 50 161 3.0 8.0 0.00 0.02 0.02 92 1027.7
20260509133253 50 160 2.0 7.0 0.00 0.02 0.02 92 1027.8
20260509132753 50 208 2.0 7.0 0.00 0.02 0.02 91 1028.0
20260509132253 51 213 2.0 8.0 0.00 0.02 0.02 91 1028.0
20260509131753 51 103 2.0 5.0 0.00 0.02 0.02 91 1028.0
20260509131253 51 199 3.0 7.0 0.00 0.02 0.02 91 1027.9
20260509130753 51 201 2.0 10.0 0.00 0.02 0.02 91 1027.8
20260509130253 51 197 2.0 6.0 0.00 0.02 0.02 92 1027.8
20260509125753 51 175 1.0 6.0 0.00 0.02 0.02 91 1028.0
20260509125253 51 204 1.0 8.0 0.00 0.02 0.02 91 1028.0
20260509124753 51 113 2.0 2.0 0.00 0.02 0.02 92 1028.1
20260509123753 51 265 1.0 5.0 0.00 0.02 0.02 92 1028.1
20260509123253 51 180 1.0 4.0 0.00 0.02 0.02 91 1028.1
20260509122753 51 180 1.0 3.0 0.00 0.02 0.02 91 1028.0
20260509122253 51 227 1.0 2.0 0.00 0.02 0.02 92 1028.1
20260509121753 51 175 1.0 4.0 0.00 0.02 0.02 92 1028.1
20260509121253 51 188 2.0 7.0 0.00 0.02 0.02 92 1028.1
20260509120753 52 233 2.0 6.0 0.00 0.02 0.02 92 1028.1
20260509120253 52 213 2.0 5.0 0.00 0.02 0.02 92 1028.1
20260509115753 52 205 2.0 4.0 0.00 0.02 0.02 92 1028.1
20260509115253 52 181 1.0 7.0 0.00 0.02 0.02 92 1028.0
20260509114253 52 183 1.0 2.0 0.00 0.02 0.02 92 1028.0
20260509113753 52 232 1.0 3.0 0.00 0.02 0.02 92 1027.9
20260509113253 52 194 1.0 3.0 0.00 0.02 0.02 91 1027.9
20260509112753 52 227 1.0 3.0 0.00 0.02 0.02 91 1028.0
20260509112253 52 257 1.0 3.0 0.00 0.02 0.02 91 1028.0
20260509111753 52 248 1.0 3.0 0.00 0.02 0.02 91 1027.9
20260509111253 52 205 1.0 3.0 0.00 0.02 0.02 91 1028.0
20260509110753 53 247 1.0 2.0 0.00 0.02 0.02 91 1028.0
20260509110253 53 209 1.0 3.0 0.00 0.02 0.02 91 1028.0
20260509105753 53 236 1.0 7.0 0.00 0.02 0.02 91 1027.8
20260509105253 53 259 1.0 4.0 0.00 0.02 0.02 91 1027.8
20260509104753 53 183 0.0 4.0 0.00 0.02 0.02 91 1027.9
20260509104253 53 192 1.0 2.0 0.00 0.02 0.02 91 1027.8
20260509103753 53 207 1.0 4.0 0.00 0.02 0.02 91 1027.8
20260509103253 53 171 0.0 3.0 0.00 0.02 0.02 91 1027.8
20260509102753 53 169 0.0 2.0 0.00 0.02 0.02 91 1027.9
20260509102253 53 190 0.0 4.0 0.00 0.03 0.02 91 1027.8
20260509101753 53 171 0.0 4.0 0.00 0.03 0.02 91 1027.8
20260509101253 53 184 1.0 5.0 0.00 0.03 0.02 91 1027.7
20260509100753 53 165 1.0 3.0 0.00 0.03 0.02 91 1027.8
20260509100253 53 173 1.0 3.0 0.00 0.03 0.02 90 1027.8
20260509095753 53 171 0.0 5.0 0.00 0.03 0.02 90 1027.7
20260509095253 53 218 0.0 1.0 0.00 0.03 0.02 90 1027.7
20260509094753 53 187 0.0 4.0 0.00 0.03 0.02 90 1027.8
20260509094253 53 176 0.0 1.0 0.00 0.03 0.02 90 1027.7
20260509093753 53 192 0.0 3.0 0.00 0.03 0.02 90 1027.7
20260509093253 53 186 0.0 4.0 0.00 0.03 0.02 90 1027.7
20260509092753 53 192 1.0 2.0 0.00 0.03 0.02 90 1027.6
20260509092254 53 180 1.0 5.0 0.00 0.03 0.02 89 1027.6
20260509091753 53 205 0.0 0.0 0.00 0.03 0.02 89 1027.6
20260509091254 53 210 0.0 5.0 0.00 0.03 0.02 89 1027.5
20260509090753 53 234 0.0 3.0 0.00 0.03 0.02 89 1027.6
20260509090254 53 206 0.0 3.0 0.00 0.03 0.02 89 1027.6
20260509085754 53 192 0.0 2.0 0.00 0.03 0.02 89 1027.5
20260509085254 53 189 0.0 3.0 0.00 0.03 0.02 89 1027.5
20260509084754 53 226 0.0 3.0 0.00 0.03 0.02 89 1027.5
20260509084254 53 187 0.0 3.0 0.00 0.03 0.02 89 1027.5
20260509083754 53 161 0.0 4.0 0.00 0.03 0.02 89 1027.5
20260509083254 53 154 0.0 1.0 0.00 0.03 0.02 88 1027.4